TimeEST,TemperatureF,Dew PointF,Humidity,Sea Level PressureIn,VisibilityMPH,Wind Direction,Wind SpeedMPH,Gust SpeedMPH,PrecipitationIn,Events,Conditions,WindDirDegrees,DateUTC
12:10 AM,33.8,32.0,93,29.87,7.0,Calm,Calm,-,N/A,,Partly Cloudy,0,2011-11-16 05:10:00
12:20 AM,33.8,32.0,93,29.86,1.5,Calm,Calm,-,N/A,,Partly Cloudy,0,2011-11-16 05:20:00
12:22 AM,33.8,32.0,93,29.86,1.0,Calm,Calm,-,N/A,,Mist,0,2011-11-16 05:22:00
12:29 AM,35.6,33.8,93,29.86,0.2,Calm,Calm,-,N/A,Fog,Fog,0,2011-11-16 05:29:00
12:53 AM,34.0,32.0,92,29.87,0.5,Calm,Calm,-,N/A,Fog,Fog,0,2011-11-16 05:53:00
1:11 AM,33.8,30.2,87,29.85,1.5,Calm,Calm,-,N/A,,Overcast,0,2011-11-16 06:11:00
1:13 AM,33.8,30.2,87,29.85,3.0,Calm,Calm,-,N/A,,Overcast,0,2011-11-16 06:13:00
1:24 AM,33.8,30.2,87,29.84,2.0,ENE,3.5,-,N/A,,Mostly Cloudy,70,2011-11-16 06:24:00
1:27 AM,33.8,30.2,87,29.84,1.2,Calm,Calm,-,N/A,,Mostly Cloudy,0,2011-11-16 06:27:00
1:35 AM,32.0,30.2,93,29.84,0.2,Calm,Calm,-,N/A,Fog,Fog,0,2011-11-16 06:35:00
1:45 AM,33.8,30.2,87,29.84,1.8,Calm,Calm,-,N/A,,Mostly Cloudy,0,2011-11-16 06:45:00
1:53 AM,33.1,30.9,92,29.85,7.0,Calm,Calm,-,N/A,,Scattered Clouds,0,2011-11-16 06:53:00
2:15 AM,32.0,30.2,93,29.84,1.2,Calm,Calm,-,N/A,,Partly Cloudy,0,2011-11-16 07:15:00
2:23 AM,32.0,30.2,93,29.84,3.0,Calm,Calm,-,N/A,,Partly Cloudy,0,2011-11-16 07:23:00
2:53 AM,32.0,30.0,92,29.86,7.0,Calm,Calm,-,N/A,,Partly Cloudy,0,2011-11-16 07:53:00
3:53 AM,33.1,30.9,92,29.84,3.0,Calm,Calm,-,N/A,,Clear,0,2011-11-16 08:53:00
3:59 AM,32.0,30.2,93,29.83,1.8,Calm,Calm,-,N/A,,Clear,0,2011-11-16 08:59:00
4:10 AM,33.8,30.2,87,29.83,4.0,Calm,Calm,-,N/A,,Clear,0,2011-11-16 09:10:00
4:53 AM,32.0,30.9,96,29.84,9.0,Calm,Calm,-,N/A,,Mostly Cloudy,0,2011-11-16 09:53:00
5:53 AM,35.1,32.0,89,29.84,10.0,Calm,Calm,-,N/A,,Overcast,0,2011-11-16 10:53:00
6:53 AM,35.1,32.0,89,29.84,10.0,Calm,Calm,-,N/A,,Mostly Cloudy,0,2011-11-16 11:53:00
7:53 AM,37.0,34.0,89,29.84,10.0,Calm,Calm,-,N/A,,Partly Cloudy,0,2011-11-16 12:53:00
8:53 AM,54.0,46.9,77,29.83,10.0,SSW,10.4,-,N/A,,Mostly Cloudy,200,2011-11-16 13:53:00
9:53 AM,55.9,46.0,69,29.80,10.0,SSW,12.7,-,N/A,,Overcast,210,2011-11-16 14:53:00
10:53 AM,57.2,46.4,67,29.77,10.0,SW,11.5,-,N/A,,Scattered Clouds,220,2011-11-16 15:53:00
11:53 AM,57.9,46.0,65,29.75,10.0,SSW,12.7,-,N/A,,Partly Cloudy,210,2011-11-16 16:53:00
12:53 PM,57.9,45.0,62,29.74,10.0,SW,12.7,18.4,N/A,,Overcast,230,2011-11-16 17:53:00
1:53 PM,57.0,46.0,67,29.71,10.0,SW,17.3,20.7,N/A,,Mostly Cloudy,220,2011-11-16 18:53:00
2:53 PM,55.9,46.0,69,29.70,10.0,SW,8.1,-,N/A,,Overcast,230,2011-11-16 19:53:00
3:16 PM,57.2,46.4,67,29.69,10.0,SW,9.2,-,N/A,,Overcast,230,2011-11-16 20:16:00
3:25 PM,57.2,46.4,67,29.69,10.0,SW,10.4,-,N/A,,Overcast,220,2011-11-16 20:25:00
3:35 PM,55.4,46.4,72,29.69,10.0,SW,9.2,-,N/A,,Mostly Cloudy,220,2011-11-16 20:35:00
3:44 PM,55.4,46.4,72,29.69,10.0,SW,12.7,19.6,N/A,,Scattered Clouds,230,2011-11-16 20:44:00
3:53 PM,55.9,46.0,69,29.70,10.0,SW,12.7,-,N/A,,Partly Cloudy,230,2011-11-16 20:53:00
4:53 PM,55.0,46.0,72,29.71,10.0,SW,13.8,-,N/A,,Clear,220,2011-11-16 21:53:00
5:53 PM,54.0,46.0,75,29.72,10.0,WSW,15.0,23.0,N/A,,Partly Cloudy,240,2011-11-16 22:53:00
6:53 PM,51.8,44.6,76,29.72,8.0,SW,11.5,17.3,N/A,,Clear,220,2011-11-16 23:53:00
7:53 PM,52.0,43.0,71,29.75,9.0,West,18.4,24.2,N/A,,Partly Cloudy,260,2011-11-17 00:53:00
8:53 PM,48.9,30.9,50,29.78,10.0,West,13.8,20.7,N/A,,Clear,270,2011-11-17 01:53:00
9:53 PM,45.0,28.0,52,29.80,10.0,West,11.5,-,N/A,,Clear,280,2011-11-17 02:53:00
10:53 PM,42.1,26.1,53,29.82,10.0,West,9.2,-,N/A,,Clear,270,2011-11-17 03:53:00
11:53 PM,41.0,25.0,53,29.83,10.0,West,10.4,-,N/A,,Clear,260,2011-11-17 04:53:00